Temperature
-2 -2 -2 -2 -3 -3 -3 -3 -3 -4 -3 -3 -3 -2 -2 -2 -2 -2 -1 -1 -1 -1 -0 -0 -0 -0 -0 0 0 1 1 1 1 1 1 1 2 2
-2 -2 -3 -3 -3 -3 -3 -4 -4 -4 -4 -4 -3 -3 -3 -3 -3 -3 -2 -2 -2 -1 -1 -1 -1 -1 -1 -1 -0 -0 -0 0 0 0 1 1 1 1
-3 -3 -3 -3 -4 -4 -4 -4 -4 -4 -5 -4 -4 -4 -4 -3 -3 -3 -3 -3 -2 -2 -2 -2 -2 -1 -1 -1 -1 -1 -1 -1 -1 -0 -0 0 0 0
-3 -4 -4 -4 -4 -4 -4 -4 -5 -5 -5 -5 -5 -4 -4 -4 -4 -4 -4 -4 -3 -3 -3 -3 -2 -2 -2 -2 -2 -2 -2 -2 -1 -1 -1 -1 -1 -1
-4 -4 -4 -4 -4 -4 -5 -5 -5 -5 -5 -5 -5 -5 -5 -5 -5 -4 -4 -4 -4 -4 -4 -4 -3 -3 -3 -3 -3 -3 -3 -2 -2 -2 -2 -2 -2 -2
-4 -4 -5 -5 -5 -5 -5 -5 -5 -6 -6 -6 -6 -6 -5 -5 -5 -5 -5 -5 -5 -4 -4 -4 -4 -4 -4 -4 -4 -4 -3 -3 -3 -3 -3 -3 -2 -2
-5 -5 -5 -5 -6 -6 -6 -6 -6 -6 -6 -6 -6 -6 -6 -6 -6 -6 -6 -5 -5 -5 -5 -5 -5 -4 -4 -4 -4 -4 -4 -4 -4 -4 -3 -3 -3 -3
-5 -5 -6 -6 -6 -6 -6 -7 -7 -7 -7 -7 -7 -7 -6 -6 -6 -6 -6 -6 -6 -6 -6 -5 -5 -5 -5 -5 -5 -5 -5 -5 -5 -4 -4 -4 -4 -3
-6 -6 -6 -6 -7 -7 -7 -7 -7 -7 -7 -7 -7 -7 -7 -7 -7 -7 -7 -7 -7 -7 -7 -6 -6 -6 -6 -6 -6 -6 -6 -5 -5 -5 -5 -5 -4 -4
-6 -7 -7 -7 -7 -7 -7 -7 -7 -7 -8 -8 -8 -8 -8 -8 -8 -8 -8 -8 -8 -7 -8 -7 -7 -7 -6 -6 -6 -6 -6 -6 -6 -6 -6 -5 -5 -5
-7 -7 -7 -7 -8 -8 -8 -8 -8 -8 -8 -8 -8 -8 -8 -8 -8 -8 -8 -9 -8 -8 -8 -8 -8 -8 -7 -7 -6 -7 -7 -7 -7 -7 -6 -6 -6 -5
-8 -8 -8 -8 -8 -8 -8 -8 -8 -8 -8 -8 -8 -8 -8 -8 -8 -9 -9 -9 -9 -9 -8 -9 -9 -9 -9 -8 -7 -7 -7 -7 -7 -7 -7 -7 -6 -6
-8 -8 -8 -9 -9 -9 -9 -9 -9 -9 -9 -9 -9 -9 -9 -9 -9 -9 -9 -9 -10 -10 -9 -10 -10 -9 -10 -10 -8 -8 -8 -7 -7 -7 -7 -7 -7 -7
-9 -9 -9 -9 -9 -9 -9 -9 -9 -10 -10 -10 -10 -9 -9 -9 -9 -9 -9 -9 -10 -10 -10 -10 -10 -10 -10 -10 -10 -9 -8 -8 -8 -8 -8 -8 -7 -7
-9 -9 -9 -9 -9 -9 -10 -10 -10 -10 -10 -10 -10 -10 -10 -10 -10 -10 -10 -10 -10 -10 -10 -10 -10 -10 -10 -11 -10 -10 -10 -9 -9 -8 -8 -8 -8 -8
-10 -10 -10 -10 -10 -10 -10 -10 -10 -10 -11 -11 -11 -11 -11 -11 -11 -11 -11 -11 -10 -10 -10 -10 -10 -10 -10 -10 -11 -10 -10 -10 -10 -9 -9 -9 -9 -9
-10 -10 -10 -10 -10 -10 -10 -10 -11 -11 -11 -11 -11 -11 -11 -11 -11 -11 -11 -11 -11 -11 -10 -10 -10 -11 -11 -11 -11 -11 -11 -10 -10 -10 -10 -10 -9 -9
-11 -11 -11 -11 -11 -11 -11 -11 -11 -11 -11 -11 -11 -12 -12 -12 -11 -11 -11 -12 -12 -11 -11 -11 -11 -11 -11 -11 -11 -11 -11 -11 -11 -11 -10 -10 -10 -9
-11 -11 -11 -11 -11 -11 -12 -12 -12 -12 -12 -12 -12 -12 -12 -12 -12 -12 -12 -12 -12 -12 -12 -12 -12 -12 -12 -12 -11 -11 -11 -11 -11 -11 -11 -11 -10 -10
-12 -12 -12 -12 -12 -12 -12 -12 -12 -12 -12 -12 -12 -12 -12 -13 -13 -13 -13 -13 -12 -12 -12 -12 -12 -12 -13 -13 -12 -12 -11 -12 -12 -12 -11 -11 -11 -10
-12 -12 -12 -12 -13 -13 -13 -13 -13 -13 -13 -13 -13 -13 -13 -13 -13 -13 -13 -13 -13 -13 -13 -12 -12 -12 -13 -13 -13 -12 -11 -12 -12 -12 -12 -12 -11 -11
-13 -13 -13 -13 -13 -13 -13 -13 -13 -13 -13 -13 -13 -13 -13 -13 -13 -13 -13 -13 -13 -13 -13 -13 -13 -13 -13 -13 -13 -13 -12 -12 -11 -12 -12 -12 -12 -12
-13 -13 -13 -13 -14 -14 -14 -14 -14 -13 -13 -13 -13 -13 -13 -13 -14 -14 -14 -14 -14 -14 -13 -13 -13 -13 -13 -13 -13 -13 -13 -12 -12 -12 -11 -11 -12 -12
Wind_Speed
1 1 1 1 1 1 1 1 2 3 4 2 2 3 8 9 10 11 11 14 13 12 12 12 11 11 11 12 11 11 11 11 11 12 11 11 12 13
0 0 1 1 1 1 1 2 2 3 4 3 3 4 7 9 11 11 13 15 14 13 12 12 12 12 12 12 12 12 12 12 12 13 13 12 13 13
0 0 1 1 1 1 2 2 2 2 5 5 3 4 5 6 9 11 12 12 11 13 13 12 12 12 12 13 13 13 13 13 14 14 13 13 13 14
1 1 1 1 1 2 1 2 3 3 4 6 5 4 5 6 7 8 10 10 10 12 13 12 12 12 12 13 13 14 14 14 15 15 14 14 14 15
1 1 1 1 2 2 2 3 3 3 3 4 6 5 5 5 6 7 8 7 9 11 12 12 12 13 13 14 14 14 15 15 15 15 15 15 16 16
1 1 2 2 2 3 3 3 3 3 4 4 5 5 5 5 4 5 5 4 5 9 10 11 12 14 14 15 14 14 15 15 16 16 16 16 16 17
1 2 2 3 4 4 4 3 3 3 4 4 5 5 5 4 5 4 6 5 5 5 5 7 10 10 11 13 14 14 16 16 16 17 17 17 18 18
2 2 3 4 6 7 7 7 6 5 5 5 5 6 6 5 5 6 5 6 5 3 5 7 8 7 9 11 14 16 17 16 16 17 17 17 18 19
2 3 3 4 5 4 6 8 8 9 8 6 6 6 6 6 6 6 6 6 7 6 5 8 5 7 9 12 16 17 17 17 17 17 17 18 19 19
3 3 3 3 4 4 4 4 5 6 8 6 5 6 7 7 6 6 6 6 6 6 6 7 6 7 9 11 15 16 17 17 18 18 18 19 19 19
4 3 4 4 7 7 4 4 5 6 8 9 10 11 12 13 10 5 5 5 7 6 4 4 5 7 7 7 11 13 15 16 17 18 19 19 19 19
3 4 6 6 8 8 4 4 5 6 5 6 7 9 9 10 12 6 4 5 6 5 3 3 5 5 5 5 6 8 11 14 17 18 19 19 19 14
3 3 4 7 8 9 7 4 7 7 4 4 5 5 5 5 6 7 6 5 6 7 5 4 5 5 5 7 6 7 8 9 11 13 16 18 18 16
3 3 4 7 9 9 7 8 10 8 3 3 4 4 4 5 5 7 8 8 9 9 10 8 6 6 7 9 8 6 7 9 9 10 11 15 16 18
3 6 7 8 8 7 8 10 8 4 3 4 5 5 4 5 6 6 7 8 10 11 12 11 8 7 7 8 8 8 8 8 8 8 8 9 9 10
4 6 8 9 7 7 6 6 4 3 4 4 5 5 4 4 5 4 5 5 6 6 9 11 10 8 7 8 8 9 8 7 7 8 8 9 10 11
3 2 3 3 3 3 3 3 3 3 4 4 4 5 5 5 6 5 5 5 6 7 7 6 8 9 9 8 9 9 9 9 8 8 8 9 9 10
4 2 3 3 4 4 4 4 4 4 4 4 4 5 5 6 6 6 5 5 7 7 7 6 6 6 5 6 10 9 8 8 8 8 8 9 11 9
3 3 3 4 4 4 4 4 5 4 4 4 5 5 5 6 6 6 6 6 7 7 7 6 5 5 8 9 6 8 7 8 8 8 8 8 11 11
3 3 4 4 4 4 5 5 5 4 4 5 5 5 5 6 6 6 6 7 8 8 7 6 5 6 8 9 8 8 12 9 8 9 9 9 10 14
3 3 4 4 4 4 5 5 5 5 5 5 5 6 5 5 6 7 7 11 9 7 8 8 8 11 7 5 7 8 8 12 12 9 8 9 10 9
4 4 4 4 4 4 5 5 5 6 6 6 6 6 6 6 7 8 7 7 7 8 9 8 7 6 5 7 10 11 10 10 13 17 15 13 8 8
4 4 4 5 5 5 5 6 6 6 6 6 6 6 6 6 6 7 7 7 7 8 8 8 7 6 7 8 9 9 11 11 9 9 10 15 18 19
Wind_Direction
52 25 6 338 339 327 314 290 273 290 292 300 334 341 337 330 329 330 327 324 318 316 315 317 317 316 316 314 312 309 308 307 303 299 293 292 291 285
75 40 323 312 323 318 306 298 281 263 276 296 308 310 323 321 319 322 318 316 316 308 308 311 312 311 311 310 306 305 304 303 300 296 293 290 291 291
5 339 292 297 297 296 295 292 288 280 280 294 301 309 312 310 311 311 310 307 308 305 304 306 307 307 306 305 304 303 303 301 300 295 293 292 288 288
265 276 288 304 302 293 292 287 282 279 278 291 300 303 298 302 302 304 311 311 308 306 303 305 304 303 303 303 303 302 302 302 300 296 291 289 289 286
236 251 273 285 289 295 292 282 281 287 284 284 292 297 294 297 302 303 305 307 309 309 305 302 303 302 301 301 301 301 301 301 300 299 292 289 288 287
247 263 274 267 269 276 278 275 277 283 285 283 287 292 292 296 303 304 301 299 303 305 302 301 299 300 298 298 298 299 299 298 298 298 296 290 287 286
264 271 274 275 280 281 281 278 277 272 274 277 284 293 296 304 305 303 300 302 289 290 302 301 299 293 290 289 292 293 294 294 295 296 296 295 289 286
269 275 276 273 281 287 291 292 289 277 273 273 281 284 289 292 300 298 297 302 296 291 298 296 296 288 290 285 286 290 292 294 295 295 294 293 293 290
265 275 281 286 292 289 291 295 296 293 287 276 270 275 284 288 291 290 283 285 286 289 293 288 281 286 290 285 288 289 290 292 294 296 296 294 294 293
265 265 271 281 281 286 288 293 288 291 289 287 270 274 282 283 277 281 285 291 291 287 288 284 286 284 292 285 283 284 288 291 294 296 296 296 295 294
272 271 272 269 277 281 284 285 291 294 293 290 290 294 296 295 293 297 293 293 295 294 282 276 294 302 290 283 280 285 292 295 296 297 298 298 298 296
285 284 281 279 283 286 277 270 282 289 294 301 301 300 299 299 298 290 278 280 289 291 282 291 298 316 304 288 289 296 295 296 298 299 300 300 301 299
292 292 288 291 292 292 291 273 276 290 291 289 290 292 291 289 290 286 278 268 271 275 285 298 293 296 283 294 298 292 287 291 295 295 297 299 301 301
286 291 291 294 296 296 297 292 293 298 293 288 289 289 291 292 293 290 284 277 270 270 276 279 277 279 283 287 290 294 295 294 291 291 294 296 296 298
283 291 297 298 298 297 294 295 298 294 286 282 285 285 285 288 292 293 290 287 283 278 274 273 270 272 270 275 282 288 297 295 285 285 290 291 290 295
293 292 296 298 297 296 299 302 296 284 284 278 283 285 290 291 291 294 293 296 293 290 280 273 269 265 271 273 276 284 286 284 291 290 288 285 285 285
288 284 286 291 293 292 291 288 288 296 295 292 290 293 293 293 292 291 286 287 285 292 299 296 283 272 264 266 274 276 280 282 283 288 289 288 284 279
295 289 281 278 280 287 288 286 282 282 279 279 283 286 289 292 295 295 289 285 284 286 289 295 299 301 293 271 252 267 273 278 284 286 285 285 287 287
300 289 280 277 280 284 284 282 278 275 273 273 275 279 282 284 288 291 293 291 288 286 287 288 287 285 289 291 277 259 275 285 288 286 283 280 282 287
285 281 285 288 286 284 285 286 284 283 278 276 274 275 275 277 281 285 285 285 287 288 289 286 278 272 270 278 285 285 280 279 281 282 285 283 282 287
285 285 284 285 288 290 287 285 282 280 279 278 275 274 274 274 276 278 279 283 285 285 285 283 279 287 285 285 284 285 284 282 281 281 286 289 292 294
284 282 283 282 282 282 287 288 286 280 277 274 275 275 274 271 272 274 277 279 280 280 282 285 287 289 280 279 282 288 294 296 293 290 283 278 283 286
284 284 282 282 280 280 281 283 284 284 282 278 277 276 276 276 276 275 275 276 279 282 286 290 291 284 278 276 280 285 289 294 296 297 291 288 285 283
Height
1510 1510 1510 1511 1511 1511 1511 1511 1511 1509 1507 1507 1507 1506 1506 1505 1504 1504 1503 1502 1502 1501 1501 1500 1499 1499 1498 1498 1498 1498 1498 1497 1497 1497 1497 1497 1496 1497
1507 1508 1508 1508 1508 1508 1509 1509 1508 1508 1505 1504 1503 1503 1502 1502 1501 1500 1499 1498 1497 1497 1496 1496 1495 1494 1494 1493 1493 1493 1492 1492 1492 1492 1491 1491 1491 1491
1505 1505 1505 1505 1505 1505 1505 1505 1505 1504 1502 1500 1500 1499 1499 1498 1497 1496 1494 1493 1492 1492 1492 1491 1490 1490 1489 1488 1488 1487 1487 1486 1486 1486 1485 1485 1484 1485
1502 1502 1502 1502 1502 1502 1502 1502 1501 1501 1500 1497 1496 1496 1495 1494 1492 1491 1490 1489 1487 1487 1486 1486 1486 1485 1484 1483 1482 1482 1481 1480 1480 1479 1479 1478 1478 1478
1499 1499 1499 1498 1498 1498 1498 1498 1497 1497 1496 1495 1493 1492 1491 1490 1488 1487 1486 1484 1483 1482 1482 1481 1480 1480 1479 1478 1477 1476 1475 1474 1474 1473 1472 1472 1471 1471
1496 1495 1495 1495 1495 1494 1494 1494 1493 1493 1492 1491 1489 1488 1487 1485 1484 1482 1480 1479 1478 1478 1477 1476 1475 1474 1473 1472 1471 1470 1469 1468 1467 1467 1466 1465 1464 1464
1492 1492 1491 1491 1491 1491 1490 1490 1489 1488 1488 1487 1485 1484 1482 1481 1480 1478 1476 1474 1473 1473 1471 1471 1470 1468 1467 1466 1465 1464 1463 1462 1461 1460 1459 1458 1457 1456
1488 1488 1488 1488 1487 1487 1487 1486 1486 1485 1484 1483 1482 1480 1478 1477 1476 1474 1472 1470 1468 1468 1467 1464 1464 1462 1461 1460 1459 1458 1457 1456 1455 1454 1452 1451 1450 1449
1485 1484 1484 1484 1483 1483 1482 1482 1481 1481 1481 1480 1478 1476 1475 1474 1472 1470 1469 1467 1465 1463 1462 1458 1458 1456 1455 1454 1453 1452 1451 1450 1448 1447 1445 1444 1442 1441
1481 1481 1480 1480 1479 1479 1478 1477 1477 1476 1475 1475 1474 1472 1471 1469 1468 1467 1465 1462 1460 1459 1458 1454 1452 1451 1449 1448 1447 1446 1445 1444 1442 1440 1439 1437 1435 1434
1477 1477 1477 1476 1476 1475 1474 1473 1472 1471 1471 1470 1468 1467 1466 1465 1464 1462 1460 1458 1454 1453 1453 1450 1447 1445 1443 1441 1441 1440 1439 1437 1436 1434 1432 1430 1428 1426
1474 1473 1473 1472 1472 1471 1470 1469 1467 1466 1465 1464 1463 1462 1461 1460 1459 1458 1456 1454 1451 1448 1447 1446 1443 1441 1437 1435 1435 1434 1432 1430 1429 1427 1425 1423 1421 1419
1470 1469 1469 1468 1468 1467 1466 1465 1463 1463 1461 1459 1458 1457 1456 1454 1453 1452 1451 1450 1447 1445 1444 1443 1440 1438 1436 1430 1428 1427 1426 1424 1422 1420 1418 1416 1415 1413
1466 1466 1465 1464 1464 1463 1462 1460 1460 1458 1456 1455 1453 1452 1451 1449 1448 1447 1446 1444 1443 1441 1439 1438 1436 1433 1431 1427 1423 1421 1420 1418 1416 1413 1411 1409 1407 1405
1463 1462 1461 1461 1460 1458 1457 1456 1455 1453 1452 1450 1448 1447 1446 1445 1443 1442 1440 1438 1437 1435 1434 1433 1431 1428 1426 1423 1419 1416 1413 1411 1410 1407 1405 1402 1400 1398
1459 1458 1457 1456 1455 1454 1453 1451 1450 1449 1447 1446 1444 1443 1441 1440 1438 1436 1434 1432 1430 1428 1428 1427 1425 1423 1420 1417 1415 1411 1409 1407 1404 1402 1398 1396 1394 1391
1454 1453 1452 1451 1450 1449 1448 1447 1445 1444 1443 1441 1440 1438 1436 1435 1433 1431 1429 1427 1425 1422 1420 1420 1419 1417 1415 1413 1409 1406 1404 1401 1399 1396 1393 1389 1386 1384
1451 1449 1448 1447 1446 1444 1443 1442 1441 1439 1438 1437 1435 1434 1432 1430 1428 1426 1425 1423 1420 1418 1416 1415 1413 1410 1408 1406 1405 1401 1399 1396 1393 1391 1388 1383 1379 1377
1446 1445 1443 1442 1441 1440 1439 1438 1436 1435 1434 1432 1431 1429 1427 1425 1424 1422 1420 1418 1416 1413 1412 1410 1409 1406 1403 1399 1397 1397 1394 1391 1388 1385 1382 1379 1374 1370
1442 1440 1439 1438 1437 1435 1434 1433 1432 1430 1429 1427 1426 1424 1422 1421 1419 1417 1415 1413 1411 1409 1406 1405 1404 1402 1399 1396 1392 1389 1389 1386 1383 1379 1376 1373 1369 1366
1437 1436 1435 1434 1432 1431 1430 1428 1427 1425 1424 1422 1421 1419 1417 1416 1414 1412 1410 1408 1406 1404 1401 1399 1398 1397 1395 1392 1387 1383 1382 1381 1378 1375 1371 1367 1363 1359
1433 1432 1430 1429 1428 1426 1425 1423 1421 1420 1418 1417 1415 1414 1412 1410 1408 1406 1405 1403 1401 1399 1396 1394 1393 1391 1389 1386 1381 1378 1375 1373 1372 1370 1367 1364 1360 1354
1428 1427 1425 1424 1423 1421 1420 1418 1416 1414 1413 1411 1410 1408 1407 1405 1403 1401 1399 1397 1395 1393 1391 1388 1387 1385 1382 1380 1376 1373 1370 1367 1364 1361 1359 1357 1355 1351